Weather Service Report


224 
ASUS41 KBTV 271830
RWRBTV
VERMONT REGIONAL WEATHER ROUNDUP
NATIONAL WEATHER SERVICE BURLINGTON VT
200 PM EDT FRI MAY 27 2016

NOTE: "FAIR" INDICATES FEW OR NO CLOUDS BELOW 12,000 FEET WITH NO 
SIGNIFICANT WEATHER AND/OR OBSTRUCTIONS TO VISIBILITY.

* THESE REPORTS ARE NOT UNDER NWS QUALITY CONTROL AND/OR DO NOT
  REPORT WEATHER SUCH AS PRECIPITATION AND FOG.

VTZ001>019-271900-
_____VERMONT_____

  
CITY           SKY/WX    TMP DP  RH WIND       PRES   REMARKS
BURLINGTON     FAIR      88  61  40 S12       29.93F                  
6HR MIN TEMP:  71; 6HR MAX TEMP:  88;                                

MONTPELIER     FAIR      82  61  48 S14       30.03F                  
6HR MIN TEMP:  65; 6HR MAX TEMP:  82;                                

MORRISVILLE    FAIR      84  61  45 SW7       29.97F                  
6HR MIN TEMP:  65; 6HR MAX TEMP:  84;                                

ST. JOHNSBURY*   N/A     81  58  45 MISG      29.97F                  
6HR MIN TEMP:  65; 6HR MAX TEMP:  82;                                

LYNDONVILLE*   FAIR      80  61  52 SE10      30.01F                  
6HR MIN TEMP:  63; 6HR MAX TEMP:  78;                                

RUTLAND*       FAIR      86  61  42 SW13G21   30.00F                  
6HR MIN TEMP:  70; 6HR MAX TEMP:  86;                                

SPRINGFIELD    FAIR      82  61  48 S7        30.02F                  
6HR MIN TEMP:  64; 6HR MAX TEMP:  84;                                

HIGHGATE*      FAIR      87  62  42 S5        29.90F                  
6HR MIN TEMP:  72; 6HR MAX TEMP:  88;                                

NEWPORT*       FAIR      82  64  52 S9        29.96F                  
6HR MIN TEMP:  66; 6HR MAX TEMP:  82;                                

BENNINGTON     FAIR      85  64  49 W7        30.02F                  
6HR MIN TEMP:  68; 6HR MAX TEMP:  85;                                

MT. MANSFIELD*   N/A     72 N/A N/A NW12        N/A                   

_____LAKE CHAMPLAIN_____

  
CITY           SKY/WX    TMP DP  RH WIND       PRES   REMARKS
BURTON ISLAND*   N/A     73  59  60 S10         N/A                   
COLCHESTER RF*   N/A    N/A N/A N/A S18         N/A                   
DIAMOND ISL*     N/A     82  61  47 SW3         N/A                   

$$

NYZ007-026>031-035-052-083-087-271900-
_____NORTHERN NEW YORK_____

  
CITY           SKY/WX    TMP DP  RH WIND       PRES   REMARKS
PLATTSBURGH    MOSUNNY   85  63  47 SE14      29.91F                  
6HR MIN TEMP:  68; 6HR MAX TEMP:  86;                                

SARANAC LAKE   SUNNY     84  56  38 W15       29.99F                  
6HR MIN TEMP:  68; 6HR MAX TEMP:  85;                                

MASSENA        MOSUNNY   87  65  47 SW17G25   29.91F                  
6HR MIN TEMP:  65; 6HR MAX TEMP:  88;                                

OGDENSBURG*    SUNNY     86  70  58 SW7G18    29.92S HX  90           
WATERTOWN      SUNNY     79  66  64 W16       29.96F                  
6HR MIN TEMP:  73; 6HR MAX TEMP:  81;                                

ALBANY         CLOUDY    85  64  49 S10       30.00F                  
6HR MIN TEMP:  73; 6HR MAX TEMP:  86;                                

GLENS FALLS    MOSUNNY   89  63  41 SW13G20   29.97F HX  90           
6HR MIN TEMP:  74; 6HR MAX TEMP:  89;                                


$$
NHZ002-005-011-271900-
_____NEW HAMPSHIRE_____

  
CITY           SKY/WX    TMP DP  RH WIND       PRES   REMARKS
LEBANON        MOSUNNY   84  62  47 S6        30.00F                  
6HR MIN TEMP:  65; 6HR MAX TEMP:  85;                                

MT WASHINGTON  CLOUDY    57  54  88 SW31G40     N/A                   
6HR MIN TEMP:  50; 6HR MAX TEMP:  57;                                

PLYMOUTH       FAIR      77  57  50 E7        30.04F                  
6HR MIN TEMP:  62; 6HR MAX TEMP:  76;                                

WHITEFIELD     MOSUNNY   84  60  44 SW7G17    30.00F                  
6HR MIN TEMP:  65; 6HR MAX TEMP:  84;                                


$$

_____REGIONAL QUEBEC LOCATIONS_____

  
CITY           SKY/WX    TMP DP  RH WIND       PRES   REMARKS
MONTREAL       CLOUDY    86  64  48 SW15G24   29.87F                  
QUEBEC CITY    PTSUNNY   64  57  77 VRB2      29.90F                  
SHERBROOKE     MOSUNNY   82  63  51 SW12G21   29.93F                  

_____REGIONAL ONTARIO LOCATIONS_____

  
CITY           SKY/WX    TMP DP  RH WIND       PRES   REMARKS
OTTAWA         MOSUNNY   84  66  54 S14G21    29.90F                  

______KEY______
VSB  - VISIBILITY IN MILES
WCI  - WIND CHILL INDEX
HX   - HEAT INDEX
$$
NNNN
  

Return to Home page


Western Regional Climate Center, wrcc@dri.edu